Weather in Privolzhsk

Russia / Ivanovo Oblast     57°22′50″N   41°16′50″E
temp.,
°C
wind,
m/s
gust,
m/s
humid.,
%
clouds,
%
prec.,
mm/h
press.,
hPa
HPBL,
m
19 january, wed
wed1900:00−13wnw4109669 0.0 1012178
03:00−16wnw369964 0.0 101380
06:00−17w2410079 0.0 101457
09:00−17wsw2210083 0.1 101518
12:00−12w249434 0.0 1015128
15:00−12ssw24955 0.0 101465
18:00−14ssw4109470 0.0 1013143
21:00−11ssw5128789 0.0 1011256
20 january, thu
thu2000:00−9ssw61491100 0.0 1009362
03:00−8s71493100 0.2 1008412
06:00−8ssw71593100 0.1 1006421
09:00−7s71493100 0.3 1005444
12:00−6s71493100 0.1 1006482
15:00−5s71492100 0.1 1005521
18:00−6s71592100 0.1 1004470
21:00−7s71592100 0.1 1004534
21 january, fri
fri2100:00−8sse81592100 0.1 1005513
03:00−9sse71592100 0.1 1005504
06:00−9sse71494100 0.2 1005492
09:00−9sse61394100 0.6 1006464
12:00−8sse61294100 0.6 1006513
15:00−7se61395100 1.2 1006565
18:00−8se81594100 0.6 1006655
21:00−8ese71492100 1.3 1007609
22 january, sat
sat2200:00−8ese61393100 0.1 1007561
03:00−8ese61293100 0.6 1008604
06:00−8ese6129391 0.3 1009497
09:00−9ese51193100 0.4 1012349
12:00−8ese5994100 0.1 1015369
15:00−8e499499 0.1 1017302
18:00−12e389773 0.0 1020126
21:00−14e359981 0.1 102267
23 january, sun
sun2300:00−17e2310098 0.0 102432
03:00−18ene23100100 0.1 102541
06:00−20ene22100100 0.0 102723
09:00−21ne22100100 0.1 102918
12:00−13n129689 0.1 102988
15:00−12nw119865 0.1 103013
18:00−18nw1110098 0.0 10329
21:00−20nw11100100 0.1 10339